KUIPER-00198

导读

KUIPER-00198是亚马逊柯伊伯(Project Kuiper)卫星互联网星座的成员卫星,于2026年2月12日由法国发射。该卫星运行于近地轨道,属于柯伊伯项目全球宽带卫星网络的一部分,项目计划通过超3200颗低轨卫星,为全球包括偏远地区在内的未覆盖区域提供高速稳定的互联网接入服务,KUIPER-00198将助力拓展星座网络覆盖能力。

Basic Information
目录编号:
67770
目录名称:
KUIPER-00198
国际标识:
2026-030G
轨道中心:
EARTH
卫星名称:
KUIPER-00198
卫星全名:
KUIPER-00198
卫星状态:
在轨 (已飞行205 天)
发射日期:
2026-02-12 UTC
国别 :
美国 (US)
星等 :
--
Orbit Information
数据来源 国际轨道数据 AOE轨道数据
星历时间 2026-09-05T09:24:00+0800
17小时前
查看轨道信息
2026-09-01T05:00:00+0800
4天前
查看轨道信息
半长轴 7007.7km 7007.679km
偏心率 0.0001099 0.0000934
轨道倾角 51.898° 51.898°
近地点辐角 99.881° 107.125°
升交点赤经 127.427° 145.927°
平近点角 260.228° 271.746°
近地点 628.792km 628.887km
远地点 630.334km 630.197km
周期 97.302分钟 97.302分钟
每日圈数 14.799245 14.799311
Detailed Information
使用方式:
暂无
2D Orbit Map
3D Orbit Map
Orbit Altitude Analysis Chart
Orbit Inclination Analysis Chart
Orbit Comprehensive Analysis Chart
View Comprehensive Chart
Conjunction Data List
Event ID Objects TCA Miss Dist (km) Collision Risk Probability Collision Risk Index (CRI) Action
CDM_260907-083404-005606-777022
CANX-5 (40056)
2026-09-07T
08:34:25+0000
2.038 km
极远距离
1.575664E-6 低风险 0.39